| time (UTC) | temp F | wind direction | speed MPH | gust MPH | rain 1hr in | rain 24hr in | rain mn in | humidity % | barometer mb |
| 20260506155228 | 56 | 107 | 5.0 | 5.0 | 0.00 | 0.00 | 0.00 | 67 | 1032.6 |
| 20260506153340 | 57 | 151 | 2.0 | 4.0 | 0.00 | 0.00 | 0.00 | 66 | 1032.4 |
| 20260506152837 | 56 | 142 | 5.0 | 5.0 | 0.00 | 0.00 | 0.00 | 66 | 1032.6 |
| 20260506152334 | 58 | 143 | 3.0 | 5.0 | 0.00 | 0.00 | 0.00 | 64 | 1032.4 |
| 20260506151833 | 58 | 131 | 4.0 | 5.0 | 0.00 | 0.00 | 0.00 | 64 | 1032.6 |
| 20260506151329 | 58 | 121 | 4.0 | 5.0 | 0.00 | 0.00 | 0.00 | 63 | 1032.7 |
| 20260506150826 | 59 | 123 | 6.0 | 7.0 | 0.00 | 0.00 | 0.00 | 61 | 1032.5 |
| 20260506150323 | 60 | 105 | 5.0 | 8.0 | 0.00 | 0.00 | 0.00 | 61 | 1032.5 |
| 20260506145820 | 59 | 107 | 3.0 | 6.0 | 0.00 | 0.00 | 0.00 | 63 | 1032.5 |
| 20260506145316 | 59 | 110 | 3.0 | 5.0 | 0.00 | 0.00 | 0.00 | 62 | 1032.5 |
| 20260506144814 | 59 | 102 | 5.0 | 8.0 | 0.00 | 0.00 | 0.00 | 63 | 1032.7 |
| 20260506144310 | 59 | 107 | 5.0 | 7.0 | 0.00 | 0.00 | 0.00 | 64 | 1032.5 |
| 20260506143809 | 59 | 102 | 4.0 | 5.0 | 0.00 | 0.00 | 0.00 | 64 | 1032.5 |
| 20260506143305 | 59 | 105 | 4.0 | 5.0 | 0.00 | 0.00 | 0.00 | 64 | 1032.6 |
| 20260506142804 | 59 | 102 | 4.0 | 5.0 | 0.00 | 0.00 | 0.00 | 64 | 1032.5 |
| 20260506142301 | 59 | 105 | 3.0 | 5.0 | 0.00 | 0.00 | 0.00 | 64 | 1032.6 |
| 20260506141759 | 59 | 124 | 4.0 | 5.0 | 0.00 | 0.00 | 0.00 | 64 | 1032.5 |
| 20260506141257 | 59 | 108 | 4.0 | 5.0 | 0.00 | 0.00 | 0.00 | 63 | 1032.6 |
| 20260506140755 | 59 | 107 | 5.0 | 6.0 | 0.00 | 0.00 | 0.00 | 64 | 1032.5 |
| 20260506140251 | 59 | 103 | 5.0 | 7.0 | 0.00 | 0.00 | 0.00 | 64 | 1032.7 |
| 20260506135749 | 59 | 109 | 5.0 | 5.0 | 0.00 | 0.00 | 0.00 | 64 | 1032.5 |
| 20260506135245 | 59 | 109 | 5.0 | 5.0 | 0.00 | 0.00 | 0.00 | 65 | 1032.4 |
| 20260506134742 | 59 | 121 | 4.0 | 5.0 | 0.00 | 0.00 | 0.00 | 65 | 1032.6 |
| 20260506134238 | 59 | 112 | 3.0 | 4.0 | 0.00 | 0.00 | 0.00 | 65 | 1032.5 |
| 20260506133735 | 59 | 112 | 4.0 | 5.0 | 0.00 | 0.00 | 0.00 | 65 | 1032.5 |
| 20260506133232 | 60 | 129 | 3.0 | 3.0 | 0.00 | 0.00 | 0.00 | 64 | 1032.6 |
| 20260506132729 | 60 | 124 | 3.0 | 7.0 | 0.00 | 0.00 | 0.00 | 63 | 1032.5 |
| 20260506132226 | 60 | 131 | 5.0 | 7.0 | 0.00 | 0.00 | 0.00 | 63 | 1032.4 |
| 20260506131724 | 60 | 125 | 8.0 | 10.0 | 0.00 | 0.00 | 0.00 | 64 | 1032.4 |
| 20260506131219 | 60 | 125 | 5.0 | 7.0 | 0.00 | 0.00 | 0.00 | 66 | 1032.5 |
| 20260506130717 | 59 | 130 | 5.0 | 7.0 | 0.00 | 0.00 | 0.00 | 66 | 1032.3 |
| 20260506130214 | 60 | 131 | 6.0 | 8.0 | 0.00 | 0.00 | 0.00 | 66 | 1032.4 |
| 20260506125712 | 60 | 135 | 4.0 | 6.0 | 0.00 | 0.00 | 0.00 | 66 | 1032.3 |
| 20260506125209 | 60 | 127 | 5.0 | 8.0 | 0.00 | 0.00 | 0.00 | 66 | 1032.0 |
| 20260506124707 | 60 | 126 | 4.0 | 6.0 | 0.00 | 0.00 | 0.00 | 66 | 1032.3 |
| 20260506124205 | 60 | 117 | 6.0 | 7.0 | 0.00 | 0.00 | 0.00 | 67 | 1032.2 |
| 20260506123702 | 60 | 120 | 6.0 | 6.0 | 0.00 | 0.00 | 0.00 | 67 | 1032.1 |
| 20260506123201 | 60 | 126 | 6.0 | 7.0 | 0.00 | 0.00 | 0.00 | 67 | 1032.1 |
| 20260506122657 | 60 | 130 | 4.0 | 7.0 | 0.00 | 0.00 | 0.00 | 66 | 1032.1 |
| 20260506122155 | 60 | 136 | 5.0 | 8.0 | 0.00 | 0.00 | 0.00 | 66 | 1031.9 |
| 20260506121652 | 60 | 140 | 5.0 | 6.0 | 0.00 | 0.00 | 0.00 | 67 | 1032.0 |
| 20260506121148 | 60 | 123 | 4.0 | 5.0 | 0.00 | 0.00 | 0.00 | 66 | 1031.8 |
| 20260506120647 | 61 | 123 | 3.0 | 6.0 | 0.00 | 0.00 | 0.00 | 66 | 1031.8 |
| 20260506120143 | 61 | 136 | 5.0 | 6.0 | 0.00 | 0.00 | 0.00 | 66 | 1031.8 |
| 20260506115642 | 61 | 120 | 3.0 | 5.0 | 0.00 | 0.00 | 0.00 | 65 | 1031.9 |
| 20260506115140 | 61 | 128 | 4.0 | 6.0 | 0.00 | 0.00 | 0.00 | 65 | 1031.8 |
| 20260506114637 | 61 | 123 | 3.0 | 6.0 | 0.00 | 0.00 | 0.00 | 65 | 1031.7 |
| 20260506114135 | 61 | 133 | 4.0 | 6.0 | 0.00 | 0.00 | 0.00 | 65 | 1031.7 |
| 20260506113633 | 61 | 128 | 5.0 | 6.0 | 0.00 | 0.00 | 0.00 | 65 | 1031.7 |
| 20260506113130 | 61 | 131 | 7.0 | 8.0 | 0.00 | 0.00 | 0.00 | 65 | 1031.7 |
| 20260506112626 | 61 | 140 | 5.0 | 6.0 | 0.00 | 0.00 | 0.00 | 65 | 1031.5 |
| 20260506112124 | 61 | 145 | 5.0 | 7.0 | 0.00 | 0.00 | 0.00 | 64 | 1031.5 |
| 20260506111621 | 62 | 136 | 3.0 | 6.0 | 0.00 | 0.00 | 0.00 | 64 | 1031.4 |
| 20260506111119 | 62 | 139 | 4.0 | 5.0 | 0.00 | 0.00 | 0.00 | 64 | 1031.4 |
| 20260506110616 | 62 | 139 | 3.0 | 4.0 | 0.00 | 0.00 | 0.00 | 63 | 1031.4 |
| 20260506110113 | 62 | 138 | 3.0 | 4.0 | 0.00 | 0.00 | 0.00 | 63 | 1031.3 |
| 20260506105609 | 63 | 125 | 3.0 | 4.0 | 0.00 | 0.00 | 0.00 | 62 | 1031.3 |
| 20260506105106 | 63 | 140 | 3.0 | 4.0 | 0.00 | 0.00 | 0.00 | 62 | 1031.3 |
| 20260506104605 | 63 | 140 | 4.0 | 5.0 | 0.00 | 0.00 | 0.00 | 61 | 1031.3 |
| 20260506104102 | 63 | 146 | 3.0 | 5.0 | 0.00 | 0.00 | 0.00 | 61 | 1031.4 |
| 20260506103559 | 64 | 143 | 4.0 | 4.0 | 0.00 | 0.00 | 0.00 | 61 | 1031.3 |
| 20260506103056 | 64 | 146 | 3.0 | 4.0 | 0.00 | 0.00 | 0.00 | 60 | 1031.2 |
| 20260506102554 | 64 | 139 | 2.0 | 3.0 | 0.00 | 0.00 | 0.00 | 59 | 1031.3 |
| 20260506102051 | 64 | 140 | 3.0 | 4.0 | 0.00 | 0.00 | 0.00 | 59 | 1031.3 |
| 20260506101548 | 65 | 121 | 2.0 | 3.0 | 0.00 | 0.00 | 0.00 | 58 | 1031.2 |
| 20260506101045 | 65 | 135 | 2.0 | 3.0 | 0.00 | 0.00 | 0.00 | 57 | 1031.2 |
| 20260506100543 | 65 | 124 | 3.0 | 4.0 | 0.00 | 0.00 | 0.00 | 57 | 1031.2 |
| 20260506100041 | 66 | 123 | 3.0 | 4.0 | 0.00 | 0.00 | 0.00 | 56 | 1031.0 |
| 20260506095540 | 66 | 103 | 4.0 | 5.0 | 0.00 | 0.00 | 0.00 | 55 | 1031.0 |
| 20260506095035 | 66 | 115 | 3.0 | 5.0 | 0.00 | 0.00 | 0.00 | 55 | 1030.9 |
| 20260506094533 | 67 | 116 | 4.0 | 6.0 | 0.00 | 0.00 | 0.00 | 55 | 1031.0 |
| 20260506094031 | 67 | 122 | 4.0 | 4.0 | 0.00 | 0.00 | 0.00 | 55 | 1030.8 |
| 20260506093529 | 67 | 126 | 3.0 | 4.0 | 0.00 | 0.00 | 0.00 | 54 | 1030.9 |
| 20260506093026 | 68 | 98 | 4.0 | 5.0 | 0.00 | 0.00 | 0.00 | 53 | 1030.9 |
| 20260506092524 | 68 | 110 | 4.0 | 6.0 | 0.00 | 0.00 | 0.00 | 52 | 1030.8 |
| 20260506092020 | 69 | 120 | 3.0 | 7.0 | 0.00 | 0.00 | 0.00 | 51 | 1030.8 |
| 20260506091519 | 69 | 118 | 4.0 | 7.0 | 0.00 | 0.00 | 0.00 | 51 | 1030.6 |
| 20260506091016 | 69 | 113 | 3.0 | 5.0 | 0.00 | 0.00 | 0.00 | 51 | 1030.7 |
| 20260506090514 | 70 | 126 | 7.0 | 8.0 | 0.00 | 0.00 | 0.00 | 50 | 1030.7 |
| 20260506090010 | 70 | 96 | 8.0 | 11.0 | 0.00 | 0.00 | 0.00 | 50 | 1030.8 |
| 20260506085507 | 71 | 107 | 4.0 | 8.0 | 0.00 | 0.00 | 0.00 | 49 | 1030.6 |
| 20260506085003 | 71 | 119 | 5.0 | 7.0 | 0.00 | 0.00 | 0.00 | 49 | 1030.6 |
| 20260506084500 | 71 | 132 | 6.0 | 11.0 | 0.00 | 0.00 | 0.00 | 49 | 1030.6 |
| 20260506083956 | 71 | 130 | 8.0 | 10.0 | 0.00 | 0.00 | 0.00 | 49 | 1030.6 |
| 20260506083453 | 71 | 100 | 9.0 | 11.0 | 0.00 | 0.00 | 0.00 | 48 | 1030.6 |
| 20260506082950 | 71 | 119 | 6.0 | 12.0 | 0.00 | 0.00 | 0.00 | 48 | 1030.5 |
| 20260506082448 | 71 | 101 | 9.0 | 11.0 | 0.00 | 0.00 | 0.00 | 47 | 1030.5 |
| 20260506081943 | 71 | 98 | 10.0 | 10.0 | 0.00 | 0.00 | 0.00 | 48 | 1030.5 |
| 20260506081442 | 71 | 105 | 5.0 | 10.0 | 0.00 | 0.00 | 0.00 | 48 | 1030.4 |
| 20260506080939 | 71 | 124 | 7.0 | 12.0 | 0.00 | 0.00 | 0.00 | 48 | 1030.4 |
| 20260506080436 | 71 | 94 | 6.0 | 13.0 | 0.00 | 0.00 | 0.00 | 47 | 1030.4 |
| 20260506073420 | 72 | 110 | 8.0 | 15.0 | 0.00 | 0.00 | 0.00 | 47 | 1030.2 |
| 20260506072917 | 73 | 114 | 5.0 | 13.0 | 0.00 | 0.00 | 0.00 | 47 | 1030.3 |
| 20260506072414 | 72 | 96 | 5.0 | 10.0 | 0.00 | 0.00 | 0.00 | 48 | 1030.4 |
| 20260506071912 | 73 | 104 | 7.0 | 8.0 | 0.00 | 0.00 | 0.00 | 47 | 1030.4 |
| 20260506071410 | 72 | 81 | 9.0 | 12.0 | 0.00 | 0.00 | 0.00 | 47 | 1030.3 |
| 20260506070906 | 72 | 84 | 10.0 | 13.0 | 0.00 | 0.00 | 0.00 | 47 | 1030.3 |
| 20260506070403 | 72 | 101 | 6.0 | 11.0 | 0.00 | 0.00 | 0.00 | 49 | 1030.3 |
| 20260506062340 | 72 | 115 | 6.0 | 13.0 | 0.00 | 0.00 | 0.00 | 48 | 1030.1 |
| 20260506061836 | 73 | 143 | 9.0 | 15.0 | 0.00 | 0.00 | 0.00 | 48 | 1030.2 |
| 20260506061333 | 73 | 146 | 5.0 | 11.0 | 0.00 | 0.00 | 0.00 | 46 | 1030.2 |
| 20260506060831 | 73 | 88 | 8.0 | 14.0 | 0.00 | 0.00 | 0.00 | 48 | 1030.3 |
| 20260506060329 | 73 | 104 | 9.0 | 12.0 | 0.00 | 0.00 | 0.00 | 48 | 1030.2 |
| 20260506051300 | 71 | 113 | 3.0 | 10.0 | 0.00 | 0.00 | 0.00 | 52 | 1030.2 |
| 20260506050758 | 71 | 86 | 7.0 | 14.0 | 0.00 | 0.00 | 0.00 | 51 | 1030.4 |
| 20260506050256 | 72 | 92 | 10.0 | 12.0 | 0.00 | 0.00 | 0.00 | 52 | 1030.4 |
| 20260506044746 | 71 | 86 | 7.0 | 15.0 | 0.00 | 0.00 | 0.00 | 53 | 1030.6 |
| 20260506044243 | 71 | 87 | 7.0 | 14.0 | 0.00 | 0.00 | 0.00 | 53 | 1030.6 |
| 20260506043741 | 70 | 117 | 13.0 | 15.0 | 0.00 | 0.00 | 0.00 | 54 | 1030.8 |
| 20260506043238 | 71 | 128 | 5.0 | 11.0 | 0.00 | 0.00 | 0.00 | 54 | 1030.9 |
| 20260506042737 | 71 | 61 | 6.0 | 11.0 | 0.00 | 0.00 | 0.00 | 54 | 1030.9 |
| 20260506042235 | 70 | 49 | 8.0 | 13.0 | 0.00 | 0.00 | 0.00 | 54 | 1031.0 |
| 20260506041733 | 71 | 59 | 7.0 | 11.0 | 0.00 | 0.00 | 0.00 | 54 | 1031.1 |
| 20260506041230 | 70 | 84 | 7.0 | 12.0 | 0.00 | 0.00 | 0.00 | 54 | 1031.2 |
| 20260506040727 | 70 | 32 | 9.0 | 12.0 | 0.00 | 0.00 | 0.00 | 54 | 1031.3 |
| 20260506040224 | 69 | 45 | 10.0 | 15.0 | 0.00 | 0.00 | 0.00 | 54 | 1031.4 |
| 20260506035721 | 69 | 25 | 9.0 | 13.0 | 0.00 | 0.00 | 0.00 | 55 | 1031.2 |
| 20260506035218 | 69 | 93 | 9.0 | 12.0 | 0.00 | 0.00 | 0.00 | 56 | 1031.3 |
| 20260506034714 | 69 | 127 | 6.0 | 10.0 | 0.00 | 0.00 | 0.00 | 56 | 1031.4 |
| 20260506034212 | 69 | 85 | 9.0 | 13.0 | 0.00 | 0.00 | 0.00 | 56 | 1031.4 |
| 20260506033709 | 69 | 75 | 8.0 | 13.0 | 0.00 | 0.00 | 0.00 | 57 | 1031.6 |
| 20260506033206 | 68 | 85 | 2.0 | 8.0 | 0.00 | 0.00 | 0.00 | 58 | 1031.5 |
| 20260506032703 | 68 | 72 | 9.0 | 10.0 | 0.00 | 0.00 | 0.00 | 58 | 1031.7 |
| 20260506032200 | 68 | 87 | 10.0 | 17.0 | 0.00 | 0.00 | 0.00 | 59 | 1031.7 |
| 20260506031657 | 68 | 69 | 8.0 | 15.0 | 0.00 | 0.00 | 0.00 | 58 | 1031.7 |
| 20260506031154 | 68 | 111 | 10.0 | 13.0 | 0.00 | 0.00 | 0.00 | 58 | 1031.7 |
| 20260506030652 | 67 | 46 | 4.0 | 15.0 | 0.00 | 0.00 | 0.00 | 60 | 1031.8 |
| 20260506030149 | 67 | 99 | 8.0 | 13.0 | 0.00 | 0.00 | 0.00 | 59 | 1031.8 |
| 20260506025646 | 67 | 91 | 8.0 | 13.0 | 0.00 | 0.00 | 0.00 | 60 | 1031.7 |
| 20260506025142 | 67 | 88 | 10.0 | 11.0 | 0.00 | 0.00 | 0.00 | 59 | 1031.7 |
| 20260506024640 | 66 | 74 | 8.0 | 13.0 | 0.00 | 0.00 | 0.00 | 60 | 1032.0 |
| 20260506024136 | 66 | 87 | 9.0 | 14.0 | 0.00 | 0.00 | 0.00 | 61 | 1031.9 |
| 20260506023632 | 66 | 87 | 8.0 | 13.0 | 0.00 | 0.00 | 0.00 | 60 | 1031.9 |
| 20260506023129 | 66 | 103 | 8.0 | 16.0 | 0.00 | 0.00 | 0.00 | 60 | 1032.0 |
| 20260506022627 | 66 | 111 | 13.0 | 14.0 | 0.00 | 0.00 | 0.00 | 61 | 1032.0 |
| 20260506022124 | 65 | 81 | 9.0 | 14.0 | 0.00 | 0.00 | 0.00 | 61 | 1032.0 |
| 20260506021621 | 65 | 72 | 8.0 | 15.0 | 0.00 | 0.00 | 0.00 | 62 | 1032.1 |
| 20260506021119 | 65 | 85 | 11.0 | 14.0 | 0.00 | 0.00 | 0.00 | 62 | 1032.0 |
| 20260506020616 | 64 | 77 | 10.0 | 18.0 | 0.00 | 0.00 | 0.00 | 63 | 1032.2 |
| 20260506020113 | 64 | 78 | 11.0 | 15.0 | 0.00 | 0.00 | 0.00 | 63 | 1032.0 |
| 20260506015611 | 64 | 84 | 13.0 | 20.0 | 0.00 | 0.00 | 0.00 | 63 | 1032.2 |
| 20260506015107 | 64 | 80 | 8.0 | 15.0 | 0.00 | 0.00 | 0.00 | 65 | 1032.1 |
| 20260506014605 | 63 | 87 | 14.0 | 18.0 | 0.00 | 0.00 | 0.00 | 65 | 1032.1 |
| 20260506014100 | 64 | 67 | 9.0 | 19.0 | 0.00 | 0.00 | 0.00 | 64 | 1032.1 |
| 20260506013559 | 63 | 66 | 11.0 | 16.0 | 0.00 | 0.00 | 0.00 | 64 | 1032.0 |
| 20260506013055 | 63 | 66 | 11.0 | 16.0 | 0.00 | 0.00 | 0.00 | 65 | 1032.0 |
| 20260506012551 | 62 | 64 | 11.0 | 18.0 | 0.00 | 0.00 | 0.00 | 66 | 1032.0 |
| 20260506012048 | 63 | 81 | 13.0 | 16.0 | 0.00 | 0.00 | 0.00 | 66 | 1031.9 |
| 20260506011546 | 63 | 83 | 9.0 | 14.0 | 0.00 | 0.00 | 0.00 | 67 | 1032.3 |
| 20260506011042 | 62 | 87 | 8.0 | 14.0 | 0.00 | 0.00 | 0.00 | 67 | 1032.0 |
| 20260506010542 | 62 | 88 | 8.0 | 13.0 | 0.00 | 0.00 | 0.00 | 68 | 1032.0 |
| 20260506010038 | 62 | 84 | 17.0 | 20.0 | 0.00 | 0.00 | 0.00 | 68 | 1032.0 |
| 20260506005535 | 61 | 103 | 7.0 | 11.0 | 0.00 | 0.00 | 0.00 | 70 | 1032.0 |
| 20260506005031 | 61 | 81 | 9.0 | 15.0 | 0.00 | 0.00 | 0.00 | 69 | 1031.7 |
| 20260506004528 | 61 | 97 | 11.0 | 13.0 | 0.00 | 0.00 | 0.00 | 70 | 1031.8 |
| 20260506004025 | 60 | 96 | 6.0 | 13.0 | 0.00 | 0.00 | 0.00 | 70 | 1031.8 |
| 20260506003521 | 60 | 126 | 5.0 | 10.0 | 0.00 | 0.00 | 0.00 | 70 | 1031.8 |
| 20260506003017 | 60 | 99 | 6.0 | 13.0 | 0.00 | 0.00 | 0.00 | 71 | 1031.7 |
| 20260506002514 | 59 | 96 | 8.0 | 11.0 | 0.00 | 0.00 | 0.00 | 71 | 1031.8 |
| 20260506002009 | 59 | 93 | 8.0 | 13.0 | 0.00 | 0.00 | 0.00 | 71 | 1031.6 |
| 20260506001506 | 59 | 107 | 7.0 | 11.0 | 0.00 | 0.00 | 0.00 | 71 | 1031.9 |
| 20260506001003 | 59 | 97 | 6.0 | 10.0 | 0.00 | 0.00 | 0.00 | 72 | 1031.7 |
| 20260506000500 | 59 | 99 | 8.0 | 11.0 | 0.00 | 0.00 | 0.00 | 72 | 1031.7 |
| 20260505235957 | 58 | 93 | 9.0 | 11.0 | 0.00 | 0.00 | 0.00 | 73 | 1031.4 |
| 20260505235456 | 58 | 76 | 9.0 | 14.0 | 0.00 | 0.00 | 0.00 | 73 | 1031.4 |
| 20260505234952 | 58 | 98 | 7.0 | 11.0 | 0.00 | 0.00 | 0.00 | 74 | 1031.3 |
| 20260505234450 | 57 | 73 | 8.0 | 13.0 | 0.00 | 0.00 | 0.00 | 74 | 1031.4 |
| 20260505233946 | 57 | 91 | 6.0 | 15.0 | 0.00 | 0.00 | 0.00 | 75 | 1031.2 |
| 20260505233444 | 57 | 85 | 8.0 | 13.0 | 0.00 | 0.00 | 0.00 | 75 | 1030.9 |
| 20260505232941 | 57 | 94 | 5.0 | 11.0 | 0.00 | 0.00 | 0.00 | 76 | 1031.1 |
| 20260505232439 | 56 | 89 | 8.0 | 14.0 | 0.00 | 0.00 | 0.00 | 76 | 1030.9 |
| 20260505231936 | 56 | 82 | 10.0 | 13.0 | 0.00 | 0.00 | 0.00 | 76 | 1031.0 |
| 20260505231433 | 56 | 95 | 8.0 | 13.0 | 0.00 | 0.00 | 0.00 | 77 | 1030.9 |
| 20260505230931 | 56 | 86 | 5.0 | 13.0 | 0.00 | 0.00 | 0.00 | 77 | 1030.7 |
| 20260505230429 | 55 | 113 | 10.0 | 13.0 | 0.00 | 0.00 | 0.00 | 77 | 1030.8 |
| 20260505225925 | 56 | 96 | 8.0 | 13.0 | 0.00 | 0.00 | 0.00 | 77 | 1030.7 |
| 20260505225422 | 56 | 98 | 9.0 | 14.0 | 0.00 | 0.00 | 0.00 | 77 | 1030.6 |
| 20260505224917 | 56 | 91 | 8.0 | 12.0 | 0.00 | 0.00 | 0.00 | 77 | 1030.5 |
| 20260505224415 | 56 | 88 | 7.0 | 15.0 | 0.00 | 0.00 | 0.00 | 77 | 1030.5 |
| 20260505223912 | 56 | 97 | 9.0 | 14.0 | 0.00 | 0.00 | 0.00 | 77 | 1030.5 |
| 20260505223409 | 55 | 104 | 5.0 | 15.0 | 0.00 | 0.00 | 0.00 | 78 | 1030.6 |
| 20260505222905 | 55 | 108 | 11.0 | 13.0 | 0.00 | 0.00 | 0.00 | 78 | 1030.5 |
| 20260505222401 | 55 | 100 | 10.0 | 15.0 | 0.00 | 0.00 | 0.00 | 78 | 1030.4 |
| 20260505221858 | 55 | 99 | 9.0 | 13.0 | 0.00 | 0.00 | 0.00 | 79 | 1030.5 |
| 20260505221355 | 55 | 112 | 10.0 | 11.0 | 0.00 | 0.00 | 0.00 | 79 | 1030.4 |
| 20260505220852 | 55 | 114 | 6.0 | 11.0 | 0.00 | 0.00 | 0.00 | 78 | 1030.2 |
| 20260505220349 | 55 | 124 | 7.0 | 13.0 | 0.00 | 0.00 | 0.00 | 78 | 1030.3 |
| 20260505215847 | 55 | 125 | 9.0 | 11.0 | 0.00 | 0.00 | 0.00 | 77 | 1030.2 |
| 20260505215345 | 56 | 117 | 7.0 | 10.0 | 0.00 | 0.00 | 0.00 | 77 | 1030.3 |
| 20260505214842 | 56 | 100 | 7.0 | 14.0 | 0.00 | 0.00 | 0.00 | 76 | 1030.2 |
| 20260505214340 | 56 | 105 | 8.0 | 12.0 | 0.00 | 0.00 | 0.00 | 77 | 1030.3 |
| 20260505213837 | 56 | 107 | 7.0 | 14.0 | 0.00 | 0.00 | 0.00 | 77 | 1030.2 |
| 20260505213335 | 56 | 101 | 10.0 | 14.0 | 0.00 | 0.00 | 0.00 | 77 | 1029.9 |
| 20260505212830 | 56 | 100 | 8.0 | 13.0 | 0.00 | 0.00 | 0.00 | 76 | 1030.0 |
| 20260505212328 | 56 | 124 | 10.0 | 15.0 | 0.00 | 0.00 | 0.00 | 77 | 1029.9 |
| 20260505211823 | 56 | 111 | 10.0 | 13.0 | 0.00 | 0.00 | 0.00 | 76 | 1029.9 |
| 20260505211322 | 56 | 91 | 10.0 | 13.0 | 0.00 | 0.00 | 0.00 | 77 | 1029.8 |
| 20260505210818 | 56 | 102 | 7.0 | 12.0 | 0.00 | 0.00 | 0.00 | 76 | 1030.0 |
| 20260505210315 | 56 | 89 | 7.0 | 11.0 | 0.00 | 0.00 | 0.00 | 76 | 1029.9 |
| 20260505205812 | 56 | 112 | 10.0 | 15.0 | 0.00 | 0.00 | 0.00 | 76 | 1029.8 |
| 20260505205310 | 56 | 103 | 9.0 | 14.0 | 0.00 | 0.00 | 0.00 | 76 | 1030.0 |
| 20260505204806 | 56 | 84 | 7.0 | 14.0 | 0.00 | 0.00 | 0.00 | 76 | 1029.9 |
| 20260505204304 | 56 | 91 | 8.0 | 15.0 | 0.00 | 0.00 | 0.00 | 76 | 1029.9 |
| 20260505203801 | 56 | 97 | 9.0 | 15.0 | 0.00 | 0.00 | 0.00 | 76 | 1029.8 |
| 20260505203258 | 56 | 92 | 7.0 | 14.0 | 0.00 | 0.00 | 0.00 | 76 | 1029.7 |
| 20260505202754 | 56 | 89 | 7.0 | 13.0 | 0.00 | 0.00 | 0.00 | 76 | 1029.8 |
| 20260505202250 | 56 | 87 | 8.0 | 12.0 | 0.00 | 0.00 | 0.00 | 76 | 1029.7 |
| 20260505201747 | 56 | 84 | 8.0 | 15.0 | 0.00 | 0.00 | 0.00 | 76 | 1029.4 |
| 20260505201244 | 56 | 88 | 9.0 | 14.0 | 0.00 | 0.00 | 0.00 | 75 | 1029.6 |
| 20260505200743 | 56 | 83 | 11.0 | 12.0 | 0.00 | 0.00 | 0.00 | 76 | 1029.7 |
| 20260505200240 | 56 | 89 | 7.0 | 13.0 | 0.00 | 0.00 | 0.00 | 76 | 1029.8 |
| 20260505195735 | 56 | 101 | 7.0 | 12.0 | 0.00 | 0.00 | 0.00 | 76 | 1029.6 |
| 20260505195233 | 55 | 114 | 8.0 | 10.0 | 0.00 | 0.00 | 0.00 | 76 | 1029.8 |
| 20260505194730 | 55 | 102 | 5.0 | 10.0 | 0.00 | 0.00 | 0.00 | 75 | 1029.7 |
| 20260505194226 | 55 | 100 | 7.0 | 8.0 | 0.00 | 0.00 | 0.00 | 75 | 1029.7 |
| 20260505193722 | 55 | 102 | 3.0 | 7.0 | 0.00 | 0.00 | 0.00 | 75 | 1029.7 |
| 20260505193219 | 55 | 98 | 4.0 | 8.0 | 0.00 | 0.00 | 0.00 | 75 | 1029.7 |
| 20260505192718 | 55 | 119 | 8.0 | 10.0 | 0.00 | 0.00 | 0.00 | 75 | 1029.7 |
| 20260505192215 | 55 | 93 | 6.0 | 10.0 | 0.00 | 0.00 | 0.00 | 75 | 1029.7 |
| 20260505191713 | 55 | 94 | 6.0 | 10.0 | 0.00 | 0.00 | 0.00 | 75 | 1029.5 |
| 20260505191211 | 55 | 110 | 7.0 | 8.0 | 0.00 | 0.00 | 0.00 | 74 | 1029.6 |
| 20260505190707 | 55 | 123 | 7.0 | 8.0 | 0.00 | 0.00 | 0.00 | 74 | 1029.8 |
| 20260505190207 | 55 | 109 | 5.0 | 10.0 | 0.00 | 0.00 | 0.00 | 74 | 1029.8 |
| 20260505185704 | 55 | 109 | 5.0 | 7.0 | 0.00 | 0.00 | 0.00 | 73 | 1029.8 |
| 20260505185200 | 55 | 123 | 8.0 | 10.0 | 0.00 | 0.00 | 0.00 | 73 | 1029.6 |
| 20260505184656 | 55 | 111 | 8.0 | 8.0 | 0.00 | 0.00 | 0.00 | 73 | 1029.7 |
| 20260505184154 | 55 | 125 | 7.0 | 9.0 | 0.00 | 0.00 | 0.00 | 73 | 1029.6 |
| 20260505183651 | 55 | 108 | 5.0 | 8.0 | 0.00 | 0.00 | 0.00 | 72 | 1029.5 |
| 20260505183148 | 56 | 106 | 9.0 | 11.0 | 0.00 | 0.00 | 0.00 | 72 | 1029.5 |
| 20260505182645 | 55 | 118 | 8.0 | 10.0 | 0.00 | 0.00 | 0.00 | 72 | 1029.8 |
| 20260505182142 | 55 | 117 | 7.0 | 9.0 | 0.00 | 0.00 | 0.00 | 72 | 1029.8 |
| 20260505181638 | 55 | 119 | 5.0 | 9.0 | 0.00 | 0.00 | 0.00 | 72 | 1029.7 |
| 20260505181136 | 55 | 132 | 7.0 | 9.0 | 0.00 | 0.00 | 0.00 | 72 | 1029.6 |
| 20260505180631 | 55 | 118 | 8.0 | 9.0 | 0.00 | 0.00 | 0.00 | 72 | 1029.7 |
| 20260505180129 | 56 | 115 | 6.0 | 9.0 | 0.00 | 0.00 | 0.00 | 71 | 1029.7 |
| 20260505175625 | 56 | 126 | 6.0 | 7.0 | 0.00 | 0.00 | 0.00 | 71 | 1029.6 |
| 20260505175121 | 56 | 116 | 7.0 | 10.0 | 0.00 | 0.00 | 0.00 | 71 | 1029.5 |
| 20260505174618 | 56 | 115 | 8.0 | 9.0 | 0.00 | 0.00 | 0.00 | 70 | 1029.6 |
| 20260505174114 | 57 | 104 | 5.0 | 9.0 | 0.00 | 0.00 | 0.00 | 70 | 1029.5 |
| 20260505173611 | 57 | 114 | 8.0 | 10.0 | 0.00 | 0.00 | 0.00 | 69 | 1029.5 |
| 20260505173108 | 57 | 117 | 8.0 | 11.0 | 0.00 | 0.00 | 0.00 | 69 | 1029.2 |
| 20260505172605 | 57 | 127 | 9.0 | 9.0 | 0.00 | 0.00 | 0.00 | 70 | 1029.3 |
| 20260505172102 | 57 | 129 | 9.0 | 10.0 | 0.00 | 0.00 | 0.00 | 70 | 1029.4 |
| 20260505171556 | 57 | 128 | 6.0 | 8.0 | 0.00 | 0.00 | 0.00 | 70 | 1029.4 |
| 20260505171054 | 57 | 116 | 6.0 | 8.0 | 0.00 | 0.00 | 0.00 | 70 | 1029.3 |
| 20260505170550 | 57 | 110 | 5.0 | 10.0 | 0.00 | 0.00 | 0.00 | 70 | 1029.3 |
| 20260505170047 | 57 | 113 | 6.0 | 10.0 | 0.00 | 0.00 | 0.00 | 69 | 1029.3 |
| 20260505165542 | 57 | 118 | 6.0 | 9.0 | 0.00 | 0.00 | 0.00 | 69 | 1029.3 |
| 20260505165038 | 57 | 116 | 9.0 | 12.0 | 0.00 | 0.00 | 0.00 | 69 | 1029.5 |
| 20260505164534 | 57 | 122 | 5.0 | 10.0 | 0.00 | 0.00 | 0.00 | 69 | 1029.6 |
| 20260505164032 | 57 | 130 | 5.0 | 8.0 | 0.00 | 0.00 | 0.00 | 69 | 1029.4 |
| 20260505163531 | 57 | 127 | 5.0 | 10.0 | 0.00 | 0.00 | 0.00 | 69 | 1029.3 |
| 20260505163027 | 57 | 123 | 8.0 | 9.0 | 0.00 | 0.00 | 0.00 | 70 | 1029.3 |
| 20260505162520 | 57 | 137 | 6.0 | 9.0 | 0.00 | 0.00 | 0.00 | 70 | 1029.2 |
| 20260505162017 | 57 | 122 | 7.0 | 9.0 | 0.00 | 0.00 | 0.00 | 70 | 1029.1 |
| 20260505161514 | 57 | 129 | 5.0 | 8.0 | 0.00 | 0.00 | 0.00 | 70 | 1029.3 |
| 20260505161011 | 57 | 122 | 4.0 | 7.0 | 0.00 | 0.00 | 0.00 | 70 | 1029.1 |
| 20260505160509 | 57 | 134 | 6.0 | 9.0 | 0.00 | 0.00 | 0.00 | 71 | 1029.2 |